Location: Mount Cross
(36.6390°N, 79.4878°W)
Time: 00:18:54
(UTC+00:00)

Vanguard 2 Rocket - Pass Details

Date: 25 March 2023
Orbit: 554 x 3314 km, 32.9° (Epoch: 08 June)

Event Time Altitude Azimuth Distance (km) Brightness Sun altitude
Rises 05:49:43 0° 279° (W) 5,242 10.8 -51.2°
Enters shadow 05:50:46 - 278° (W) 4,998 10.6 -51.1°
Exits shadow 06:24:15 11° 137° (SE) 6,190 10.9 -49.2°
Drops below altitude 10° 06:24:38 10° 136° (SE) 6,264 10.9 -49.1°
Sets 06:29:46 0° 132° (SE) 7,260 11.4 -48.7°
